Orbital Elements at Epoch 2459000.5 (2020-May-31.0) TDB
Reference: JPL 18 (heliocentric ecliptic J2000)
Element | Value | Uncertainty (1-sigma) | Units |
e | .1860426398771514 | 3.7431e-08 | |
a | 2.384980176812683 | 1.1379e-08 | au |
q | 1.941272168663776 | 8.9005e-08 | au |
i | 2.331822589083135 | 4.2576e-06 | deg |
node | 285.1746623055376 | 0.00011906 | deg |
peri | 27.51944964173961 | 0.00011985 | deg |
M | 234.8947230793602 | 1.6778e-05 | deg |
tp | 2459468.018407758834 (2021-Sep-10.51840776) | 6.4765e-05 | TDB |
period | 1345.319965199749 3.68 | 9.6279e-06 2.636e-08 | d yr |
n | .2675943339223009 | 1.9151e-09 | deg/d |
Q | 2.828688184961589 | 1.3496e-08 | au |
|
| | Orbit Determination Parameters
Additional Information
|